THOR ABLESTAR DEB, 409

Orbit data source: Space-Track

THOR ABLESTAR DEB, 409 is space debris in LEO originally from a launch on Thu, 29 Jun 1961 UTC launched from the Air Force Eastern Test Range (AFETR). Debris objects in space refer to the collection of defunct objects orbiting the Earth. Examples of debris include non-operational satellites, rocket bodies, and fragments generated from explosions, collisions, or faulty payload assembly.

Loading next visibility...
Identifier
409, 1961-015EJ
Orbit
LEO
Country
Flag of USUS
Related business
Manufacturer
Unknown
Mission
Spacecraft
Bus & Motor
Unknown
Mass
Unknown
Launch date (UTC)
1961-06-29 (64 years ago)
Launch vehicle
Unknown
Launch site
Air Force Eastern Test Range (AFETR)
Object type
Payload
Rocket body
Debris
Shape & HBR
Unknown shape, 0.1 m
Radar Cross Section
Small (<0.1 m²)

Expand to show TLE details & history
Last TLE update: 23 hours ago

TLE from 23 hours ago
0 THOR ABLESTAR DEB
1 00409U 61015EJ  25340.82245699  .00002528  00000-0  10164-2 0  9996
2 00409  66.7125 131.5076 0067778 311.0105  48.5143 14.28472422313829
Epoch: 2025-12-06T19:44Z
TLE epoch observation values (Epoch: 2025-12-06T19:44:20.283Z)
Latitude
-0.00007°
Longitude
119.57838°
Altitude
766.916 km
Speed
7.488 km/s
True Right ascension
08h 46m 01s
True Declination
0° 00' 00"
Sunlit
Object was in full shadow at epoch
Visualization orbit readout
Latitude
Unknown
Longitude
Unknown
Altitude
Unknown
Speed
Unknown
Apparent Right ascension
Unknown
Apparent Declination
Unknown
Sunlit
N/A
Visualization observer readout
Local Sidereal Time
16:42:41
Azimuth
Unknown
Elevation
Unknown
Doppler factor
Unknown
Orbital elements
Apogee altitude
843.836 km
Perigee altitude
746.596 km
Semi-major axis
7,173.353 km
Eccentricity
0.00678
Inclination
66.7125°
RAAN
131.5076°
Arg. of periapsis
311.0105°
True anomaly
49.0994°
Mean anomaly
48.5143°
Eccentric anomaly
48.80652°
Mean motion
3.5724 °/min
Orbital period
100.77 mins
BSTAR
0.0010164
Loading maneuver chart data...
Computing Atmospheric mass density...
Loading historical data...
Loading historical data...
Loading historical data...
Loading historical data...
Loading historical data...
Loading historical data...
Loading historical data...

Documentation

Showing up to 5 results
|